Weather History for Springfield, IL

Change the Weather History Date:

Monday, September 16, 2013

  Actual Average Record
Temperature  
Mean Temperature 63 °F 67 °F  
Max Temperature 72 °F 79 °F 100 °F (1939)
Min Temperature 54 °F 54 °F 39 °F (2000)
Degree Days  
Heating Degree Days 2 2  
Month to date heating degree days 11 17  
Since 1 July heating degree days 22 22  
Cooling Degree Days 0 4  
Month to date cooling degree days 117 90  
Year to date cooling degree days 1057 1060  
Growing Degree Days 13 (Base 50)    
Moisture  
Dew Point 54 °F    
Average Humidity 71    
Maximum Humidity 93    
Minimum Humidity 49    
Precipitation  
Precipitation 0.00 in 0.09 in 3.25 in (1886)
Month to date precipitation 0.78 1.58  
Year to date precipitation 31.45 27.23  
Snow  
Snow 0.00 in 0.00 in 0.00 in ()
Month to date snowfall 0.0 0.0  
Since 1 July snowfall 0.0 0.0  
Since 1 September snowfall 0.0 0.0  
Snow Depth 0.00 in    
Sea Level Pressure  
Sea Level Pressure 30.25 in    
Wind  
Wind Speed 10 mph (NE)    
Max Wind Speed 17 mph    
Max Gust Speed 22 mph    
Visibility 10 miles    
Events      
T = Trace of Precipitation, MM = Missing Value Source: NWS Daily Summary

Daily Weather History Graph

Daily Weather History Graph

Search for Another Location

Airport:

Trip Planner

Search our weather history database for the weather conditions in past years. The results will help you decide how hot, cold, wet, or windy it might be!

Date:

Astronomy

Sep. 16, 2013 Rise Set
Actual Time 6:40 AM CDT 7:05 PM CDT
Civil Twilight 6:13 AM CDT 7:32 PM CDT
Nautical Twilight 5:41 AM CDT 8:04 PM CDT
Astronomical Twilight 5:09 AM CDT 8:36 PM CDT
Moon 5:14 PM CDT (9/16) 3:27 AM CDT (9/16)
Length of Visible Light 13h 18m
Length of Day
12h 24m
Waxing Gibbous, 90% of the Moon is Illuminated
Sep 16
Waxing Gibbous
Sep 19
Full
Sep 26
Last Quarter
Oct 4
New
Oct 11
First Quarter

Hourly Weather History & Observations

Time (CDT) Temp. Dew Point Humidity Pressure Visibility Wind Dir Wind Speed Gust Speed Precip Events Conditions
12:52 AM 59.0 °F 55.9 °F 90% 30.16 in 10.0 mi NNE 11.5 mph - N/A   Overcast
1:52 AM 59.0 °F 55.0 °F 87% 30.17 in 10.0 mi NNE 10.4 mph - N/A   Overcast
2:52 AM 57.9 °F 54.0 °F 87% 30.18 in 10.0 mi NE 9.2 mph - N/A   Overcast
3:17 AM 57.2 °F 55.4 °F 94% 30.18 in 10.0 mi NNE 6.9 mph - N/A   Overcast
3:52 AM 55.9 °F 54.0 °F 93% 30.17 in 10.0 mi NNE 5.8 mph - N/A   Mostly Cloudy
4:13 AM 57.2 °F 55.4 °F 94% 30.19 in 10.0 mi North 6.9 mph - N/A   Mostly Cloudy
4:30 AM 57.2 °F 55.4 °F 94% 30.19 in 10.0 mi NNE 10.4 mph - N/A   Overcast
4:52 AM 57.0 °F 55.0 °F 93% 30.20 in 10.0 mi NE 9.2 mph - N/A   Overcast
5:52 AM 57.9 °F 55.9 °F 93% 30.23 in 8.0 mi NNE 4.6 mph - N/A   Overcast
6:17 AM 57.2 °F 55.4 °F 94% 30.25 in 8.0 mi NNE 5.8 mph - N/A   Overcast
6:52 AM 57.9 °F 55.9 °F 93% 30.25 in 8.0 mi NNE 8.1 mph - N/A   Overcast
7:52 AM 60.1 °F 55.9 °F 86% 30.27 in 10.0 mi NE 12.7 mph - N/A   Overcast
8:52 AM 61.0 °F 55.9 °F 83% 30.27 in 10.0 mi ENE 11.5 mph - N/A   Mostly Cloudy
9:18 AM 62.6 °F 55.4 °F 77% 30.29 in 10.0 mi NE 12.7 mph - N/A   Mostly Cloudy
9:52 AM 64.0 °F 55.9 °F 75% 30.30 in 10.0 mi ENE 10.4 mph - N/A   Overcast
10:52 AM 64.0 °F 55.0 °F 73% 30.30 in 10.0 mi ENE 16.1 mph - N/A   Mostly Cloudy
11:35 AM 66.2 °F 53.6 °F 64% 30.31 in 10.0 mi ENE 10.4 mph - N/A   Overcast
11:52 AM 66.9 °F 55.0 °F 66% 30.31 in 10.0 mi East 11.5 mph - N/A   Overcast
12:52 PM 68.0 °F 53.1 °F 59% 30.31 in 10.0 mi NE 13.8 mph - N/A   Mostly Cloudy
1:52 PM 68.0 °F 53.1 °F 59% 30.29 in 10.0 mi ENE 11.5 mph 17.3 mph N/A   Overcast
2:52 PM 69.1 °F 53.1 °F 57% 30.28 in 10.0 mi East 10.4 mph - N/A   Overcast
3:52 PM 71.1 °F 52.0 °F 51% 30.26 in 10.0 mi ENE 10.4 mph - N/A   Scattered Clouds
4:52 PM 71.1 °F 51.1 °F 49% 30.26 in 10.0 mi ENE 13.8 mph - N/A   Scattered Clouds
5:52 PM 68.0 °F 52.0 °F 56% 30.25 in 10.0 mi ENE 11.5 mph - N/A   Clear
6:52 PM 64.0 °F 52.0 °F 65% 30.25 in 10.0 mi East 6.9 mph - N/A   Clear
7:52 PM 61.0 °F 52.0 °F 72% 30.25 in 10.0 mi East 8.1 mph - N/A   Clear
8:52 PM 59.0 °F 52.0 °F 78% 30.25 in 10.0 mi East 5.8 mph - N/A   Clear
9:52 PM 57.9 °F 52.0 °F 81% 30.26 in 10.0 mi East 6.9 mph - N/A   Clear
10:52 PM 57.0 °F 52.0 °F 83% 30.27 in 10.0 mi East 6.9 mph - N/A   Clear
11:52 PM 54.0 °F 51.1 °F 90% 30.29 in 10.0 mi ENE 6.9 mph - N/A   Clear